SV2BBO-2 Thessaloniki GR current weather conditions

sailwx.info

Wind from 146 at 1 knots gusting 3

Air temperature 8.9° C
Dewpoint -2.4° C

Last reported at 2018-Feb-25 13:08 UTC.
Time now 2018-Feb-25 14:07 UTC

Location: N 40°38' E 022°57'.
View on Google Maps.

See reports from other nearby stations

  
Tides and Currents Weather Stations Pressure Air Temp Water Temp Dewpoint Dewpoint Depression Visibility Wind Speed Wind Dir Waves Ship Positions
date/time (UTC)wind fromknots sea level pressurealtimeterstation pressurevisibilityair tempwater tempwave heightnotes
2018-Feb-25 13:08 146 1 gusting 3 8.9
2018-Feb-25 12:58 171 1 gusting 3 8.9
2018-Feb-25 12:47 165 2 gusting 5 8.9
2018-Feb-25 12:37 058 0 gusting 2 8.9
2018-Feb-25 12:27 152 2 gusting 2 8.9
2018-Feb-25 12:17 170 4 gusting 4 8.9
2018-Feb-25 12:07 144 1 gusting 3 8.9
2018-Feb-25 11:57 060 0 gusting 2 8.9
2018-Feb-25 11:47 121 2 gusting 4 8.9
2018-Feb-25 11:37 109 2 gusting 3 8.9
2018-Feb-25 11:27 032 0 gusting 2 8.3
2018-Feb-25 11:17 067 2 gusting 3 8.3
2018-Feb-25 11:07 116 3 gusting 3 8.9
2018-Feb-25 10:57 149 2 gusting 3 8.9
2018-Feb-25 10:47 044 2 gusting 3 8.3
2018-Feb-25 10:37 111 1 gusting 3 8.9
2018-Feb-25 10:27 085 2 gusting 3 8.3
2018-Feb-25 10:17 072 2 gusting 4 8.3
2018-Feb-25 10:07 041 3 gusting 3 8.3
2018-Feb-25 09:57 034 3 gusting 5 8.3
2018-Feb-25 09:47 001 4 gusting 6 8.3
2018-Feb-25 09:37 339 4 gusting 6 8.3
2018-Feb-25 09:27 344 3 gusting 6 8.9
2018-Feb-25 09:17 352 2 gusting 4 8.9
2018-Feb-25 09:07 338 4 gusting 5 8.9
2018-Feb-25 08:57 305 2 gusting 6 8.9
2018-Feb-25 08:47 270 2 gusting 2 8.9
2018-Feb-25 08:37 288 2 gusting 3 9.4
2018-Feb-25 08:27 290 0 gusting 3 9.4
2018-Feb-25 08:17 234 3 gusting 3 9.4
2018-Feb-25 08:07 211 3 gusting 4 9.4
2018-Feb-25 07:57 190 0 gusting 3 8.9
2018-Feb-25 07:47 181 2 gusting 3 8.9
2018-Feb-25 07:37 038 8.9
2018-Feb-25 07:27 038 8.3
2018-Feb-25 07:17 038 2 gusting 2 8.3
2018-Feb-25 07:07 032 3 gusting 3 7.8
2018-Feb-25 06:57 034 4 gusting 5 7.8
2018-Feb-25 06:47 004 6 gusting 8 8.3
2018-Feb-25 06:37 337 6 gusting 7 8.3
2018-Feb-25 06:27 348 3 gusting 4 8.3
2018-Feb-25 06:17 001 4 gusting 4 8.3
2018-Feb-25 06:07 024 3 gusting 5 8.3
2018-Feb-25 05:57 348 2 gusting 2 8.9
2018-Feb-25 05:47 214 8.9
2018-Feb-25 05:37 166 3 gusting 4 9.4
2018-Feb-25 05:27 201 2 gusting 2 9.4
2018-Feb-25 05:17 164 3 gusting 5 9.4
2018-Feb-25 05:07 191 3 gusting 5 8.9
2018-Feb-25 04:57 178 3 gusting 4 9.4
2018-Feb-25 04:47 189 3 gusting 4 8.9
2018-Feb-25 04:37 324 8.9
2018-Feb-25 04:27 019 8.9
2018-Feb-25 04:17 019 1 gusting 2 8.9
2018-Feb-25 04:07 030 8.3
2018-Feb-25 03:57 030 8.3
2018-Feb-25 03:47 030 0 gusting 3 8.3
2018-Feb-25 03:37 357 2 gusting 2 8.3
2018-Feb-25 03:27 001 8.3
2018-Feb-25 03:17 268 2 gusting 3 8.3
2018-Feb-25 03:07 338 3 gusting 5 8.3
2018-Feb-25 02:57 315 3 gusting 5 8.3
2018-Feb-25 02:47 342 4 gusting 5 8.3
2018-Feb-25 02:38 8.3
2018-Feb-25 02:28 355 4 gusting 6 8.3
2018-Feb-25 02:18 029 4 gusting 5 8.3
2018-Feb-25 02:08 348 4 gusting 6 8.3
2018-Feb-25 01:58 350 4 gusting 7 8.3
2018-Feb-25 01:48 355 4 gusting 6 8.3
2018-Feb-25 01:38 8.3
2018-Feb-25 01:28 343 6 gusting 6 8.3
2018-Feb-25 01:18 002 5 gusting 6 8.3
2018-Feb-25 01:08 002 3 gusting 6 8.3
2018-Feb-25 00:58 350 7 gusting 7 8.3
2018-Feb-25 00:48 350 6 gusting 6 8.3
2018-Feb-25 00:38 8.3
2018-Feb-25 00:28 358 7 gusting 7 8.3
2018-Feb-25 00:18 012 7 gusting 11 8.3
2018-Feb-25 00:08 023 7 gusting 11 8.3
2018-Feb-24 23:58 048 6 gusting 7 8.3
2018-Feb-24 23:48 017 8 gusting 10 8.3
2018-Feb-24 23:38 010 5 gusting 9 8.3
2018-Feb-24 23:28 021 7 gusting 8 8.3
2018-Feb-24 23:18 014 6 gusting 8 8.3
2018-Feb-24 23:08 019 6 gusting 7 8.3
2018-Feb-24 22:58 008 7 gusting 11 8.3
2018-Feb-24 22:48 002 6 gusting 10 8.9
2018-Feb-24 22:38 357 6 gusting 6 8.9
2018-Feb-24 22:28 007 6 gusting 8 8.9
2018-Feb-24 22:18 343 8 gusting 7 8.9
2018-Feb-24 22:08 9.4
2018-Feb-24 21:58 002 5 gusting 7 9.4
2018-Feb-24 21:48 010 6 gusting 8 9.4
2018-Feb-24 21:38 003 5 gusting 7 10.0
2018-Feb-24 21:28 348 6 gusting 6 10.0
2018-Feb-24 21:18 003 2 gusting 5 10.6
2018-Feb-24 21:08 353 3 gusting 4 10.6
2018-Feb-24 20:58 347 4 gusting 6 10.6
2018-Feb-24 20:48 307 2 gusting 4 10.6
2018-Feb-24 20:38 343 3 gusting 3 10.6
2018-Feb-24 20:28 306 3 gusting 5 10.6
2018-Feb-24 20:18 281 4 gusting 5 10.6
2018-Feb-24 20:08 311 3 gusting 5 10.6
2018-Feb-24 19:58 352 4 gusting 7 10.6
2018-Feb-24 19:48 356 4 gusting 6 10.6
2018-Feb-24 19:38 357 4 gusting 5 11.1
2018-Feb-24 19:28 035 11.1
2018-Feb-24 19:18 271 2 gusting 3 11.1
2018-Feb-24 19:08 241 11.1
2018-Feb-24 18:58 198 10.6
2018-Feb-24 18:48 238 0 gusting 3 10.6
2018-Feb-24 18:38 260 10.6
2018-Feb-24 18:28 035 2 gusting 3 10.6
2018-Feb-24 18:18 312 0 gusting 2 11.1
2018-Feb-24 18:08 299 10.6
2018-Feb-24 17:58 013 2 gusting 3 10.6
2018-Feb-24 17:48 322 2 gusting 3 10.6
2018-Feb-24 17:38 323 1 gusting 3 10.6
2018-Feb-24 17:28 344 2 gusting 3 10.6
2018-Feb-24 17:18 345 2 gusting 3 10.6
2018-Feb-24 17:08 357 2 gusting 3 10.6
2018-Feb-24 16:58 018 2 gusting 4 10.6
2018-Feb-24 16:48 285 2 gusting 2 10.6
2018-Feb-24 16:38 332 2 gusting 3 10.6
2018-Feb-24 16:28 025 0 gusting 2 10.6
2018-Feb-24 16:18 331 3 gusting 4 10.6
2018-Feb-24 16:08 027 10.6
2018-Feb-24 15:58 043 2 gusting 3 10.6
2018-Feb-24 15:48 358 2 gusting 2 10.0
2018-Feb-24 15:38 050 3 gusting 4 10.0
2018-Feb-24 15:28 10.0
2018-Feb-24 15:18 041 3 gusting 4 10.0
2018-Feb-24 15:08 006 4 gusting 5 10.6
2018-Feb-24 14:58 341 4 gusting 5 10.6
2018-Feb-24 14:48 018 4 gusting 5 10.6
2018-Feb-24 14:38 003 3 gusting 6 11.1
2018-Feb-24 14:28 017 4 gusting 6 11.1
2018-Feb-24 14:18 008 3 gusting 4 11.1
2018-Feb-24 14:08 333 3 gusting 5 11.1
2018-Feb-24 13:58 348 4 gusting 6 11.1
2018-Feb-24 13:48 303 4 gusting 4 11.1
2018-Feb-24 13:38 016 3 gusting 4 11.1
2018-Feb-24 13:28 010 3 gusting 4 11.7
2018-Feb-24 13:18 068 5 gusting 7 11.1
2018-Feb-24 13:08 003 5 gusting 5 11.1
2018-Feb-24 12:58 345 3 gusting 4 11.1
2018-Feb-24 12:48 040 2 gusting 6 12.2
2018-Feb-24 12:38 051 2 gusting 3 11.7
2018-Feb-24 12:28 052 4 gusting 5 10.6
2018-Feb-24 12:18 045 4 gusting 5 10.6
2018-Feb-24 12:08 351 0 gusting 3 10.6
2018-Feb-24 11:58 044 4 gusting 5 10.0
2018-Feb-24 11:48 041 2 gusting 3 10.6
2018-Feb-24 11:38 098 1 gusting 3 11.1
2018-Feb-24 11:28 358 3 gusting 5 10.6
2018-Feb-24 11:18 345 3 gusting 4 10.6
2018-Feb-24 11:08 033 1 gusting 4 10.6
2018-Feb-24 10:58 040 3 gusting 4 10.6
2018-Feb-24 10:48 113 2 gusting 3 10.0
2018-Feb-24 10:38 079 2 gusting 5 10.0
2018-Feb-24 10:28 059 6 gusting 5 10.0
2018-Feb-24 10:18 062 5 gusting 6 10.0
2018-Feb-24 10:08 057 6 gusting 10 10.0
2018-Feb-24 09:58 034 4 gusting 5 10.0
2018-Feb-24 09:48 044 3 gusting 4 10.0
2018-Feb-24 09:38 097 4 gusting 5 9.4
2018-Feb-24 09:28 043 2 gusting 4 10.0
2018-Feb-24 09:18 057 1 gusting 4 10.0
2018-Feb-24 09:08 004 2 gusting 5 10.6
2018-Feb-24 08:58 073 10.0
2018-Feb-24 08:48 079 0 10.0
2018-Feb-24 08:38 071 1 gusting 2 10.0
2018-Feb-24 08:28 027 1 10.0
2018-Feb-24 08:18 030 3 gusting 4 10.0
2018-Feb-24 08:08 044 10.0
2018-Feb-24 07:58 359 4 gusting 5 10.0
2018-Feb-24 07:48 046 5 gusting 7 10.0
2018-Feb-24 07:38 043 3 gusting 5 10.0
2018-Feb-24 07:28 022 3 gusting 5 10.6
2018-Feb-24 07:18 025 0 gusting 3 10.6
2018-Feb-24 07:08 073 0 gusting 3 10.6
2018-Feb-24 06:58 199 3 gusting 4 10.6
2018-Feb-24 06:48 158 4 gusting 7 10.0
2018-Feb-24 06:38 130 4 gusting 5 10.0
2018-Feb-24 06:28 073 4 gusting 7 9.4
2018-Feb-24 06:18 083 6 gusting 6 9.4
2018-Feb-24 06:07 088 4 gusting 7 10.0
2018-Feb-24 05:57 102 4 gusting 7 10.0
2018-Feb-24 05:47 128 5 gusting 8 10.0
2018-Feb-24 05:37 172 6 gusting 6 10.0
2018-Feb-24 05:27 108 5 gusting 7 10.0
2018-Feb-24 05:17 092 3 gusting 7 10.0
2018-Feb-24 05:07 134 5 gusting 6 10.0
2018-Feb-24 04:57 088 5 gusting 8 10.0
2018-Feb-24 04:47 103 4 gusting 5 10.0
2018-Feb-24 04:37 099 5 gusting 6 10.0
2018-Feb-24 04:27 074 3 gusting 6 10.0
2018-Feb-24 04:17 080 6 gusting 6 9.4
2018-Feb-24 04:07 087 5 gusting 12 9.4
2018-Feb-24 03:57 036 5 gusting 9 9.4
2018-Feb-24 03:47 084 6 gusting 12 9.4
2018-Feb-24 03:37 143 4 gusting 7 10.0
2018-Feb-24 03:27 061 6 gusting 7 10.0
2018-Feb-24 03:17 071 5 gusting 4 10.6
2018-Feb-24 03:07 038 2 gusting 3 11.1
2018-Feb-24 02:57 072 2 gusting 3 11.1
2018-Feb-24 02:48 208 2 gusting 2 10.6
2018-Feb-24 02:37 156 2 gusting 3 10.6
2018-Feb-24 02:27 104 3 gusting 6 10.6
2018-Feb-24 02:17 015 3 gusting 3 10.0
2018-Feb-24 02:07 106 6 gusting 6 10.0
2018-Feb-24 01:57 101 5 gusting 7 10.6
2018-Feb-24 01:47 107 4 gusting 4 10.6
2018-Feb-24 01:37 127 6 gusting 13 10.0
2018-Feb-24 01:27 081 5 gusting 6 10.0
2018-Feb-24 01:17 179 4 gusting 7 10.0
2018-Feb-24 01:07 055 9 gusting 12 10.0
2018-Feb-24 00:57 104 5 gusting 13 10.0
2018-Feb-24 00:47 185 6 gusting 5 10.0
2018-Feb-24 00:37 124 6 gusting 12 10.0
2018-Feb-24 00:27 094 4 gusting 7 10.0
2018-Feb-24 00:17 043 6 gusting 13 10.0
2018-Feb-24 00:07 073 6 gusting 8 10.0
2018-Feb-23 23:57 085 4 gusting 7 10.0
2018-Feb-23 23:47 082 6 gusting 10 10.0
2018-Feb-23 23:37 037 6 gusting 13 10.0
2018-Feb-23 23:27 112 5 gusting 7 10.0
2018-Feb-23 23:17 067 6 gusting 6 10.6
2018-Feb-23 23:07 054 6 gusting 7 10.6
2018-Feb-23 22:57 039 5 gusting 10 10.6
2018-Feb-23 22:47 022 3 gusting 6 10.6
2018-Feb-23 22:37 124 3 gusting 6 10.6
2018-Feb-23 22:27 073 3 gusting 6 11.1
2018-Feb-23 22:17 098 6 gusting 7 11.1
2018-Feb-23 22:07 045 5 gusting 6 11.1
2018-Feb-23 21:57 094 1 gusting 4 11.7
2018-Feb-23 21:47 142 1 gusting 3 11.7
2018-Feb-23 21:37 128 2 gusting 4 12.2
2018-Feb-23 21:27 178 0 11.7
2018-Feb-23 21:17 217 12.2
2018-Feb-23 21:07 287 11.7
2018-Feb-23 20:57 287 2 gusting 3 12.2
2018-Feb-23 20:37 184 3 gusting 3 12.2
2018-Feb-23 20:17 191 0 12.2
2018-Feb-23 20:07 229 12.2
2018-Feb-23 19:57 228 2 gusting 3 12.2
2018-Feb-23 19:47 223 0 gusting 3 12.8
2018-Feb-23 19:37 209 3 gusting 3 12.8
2018-Feb-23 19:27 199 0 12.8
2018-Feb-23 19:17 232 12.8
2018-Feb-23 19:07 213 12.8
2018-Feb-23 18:57 165 0 12.8
2018-Feb-23 18:47 191 3 gusting 3 13.3
2018-Feb-23 18:37 160 2 gusting 5 13.3
2018-Feb-23 18:27 069 1 gusting 3 12.8
2018-Feb-23 18:17 092 2 gusting 5 12.8
2018-Feb-23 18:07 097 4 gusting 6 12.8
2018-Feb-23 17:57 072 3 gusting 5 12.8
2018-Feb-23 17:47 072 0 gusting 3 12.8
2018-Feb-23 17:37 223 3 gusting 3 12.8
2018-Feb-23 17:27 279 12.8
2018-Feb-23 17:17 262 12.8
2018-Feb-23 17:07 297 12.8
2018-Feb-23 16:57 255 2 gusting 3 12.8
2018-Feb-23 16:47 222 12.8
2018-Feb-23 16:37 215 2 gusting 3 12.8
2018-Feb-23 16:27 202 2 gusting 3 12.8
2018-Feb-23 16:17 212 2 gusting 5 12.8
2018-Feb-23 16:07 183 2 gusting 3 12.8
2018-Feb-23 15:57 178 2 gusting 3 13.3
2018-Feb-23 15:47 244 3 gusting 5 13.3
2018-Feb-23 15:37 216 2 gusting 5 13.3
2018-Feb-23 15:27 063 2 gusting 5 13.3
2018-Feb-23 15:17 104 12.8
2018-Feb-23 15:07 094 13.3
2018-Feb-23 14:57 134 1 gusting 3 13.3
2018-Feb-23 14:47 074 1 gusting 5 13.3
2018-Feb-23 14:37 073 0 gusting 4 12.8
2018-Feb-23 14:27 095 2 gusting 3 13.3
2018-Feb-23 14:17 087 3 gusting 3 12.8
2018-Feb-23 14:07 067 4 gusting 4 13.3